EW3804 Weather Reports


time (UTC)temp
F
wind
direction
speed
knots
gust
knots
rain 1hr
in
rain 24hr
in
rain mn
in
humidity
%
barometer
mb
20260906161514 91 136 0.0 7.0 0.00 0.00 0.00 56 1006.5
20260906160011 91 141 0.0 4.3 0.00 0.00 0.00 60 1006.5
20260906154507 89 243 1.7 3.5 0.00 0.00 0.00 59 1006.4
20260906153004 88 148 0.0 3.5 0.00 0.00 0.00 63 1006.4
20260906151601 86 111 0.0 4.3 0.00 0.00 0.00 67 1006.4
20260906150058 85 133 0.9 5.2 0.00 0.00 0.00 72 1006.3
20260906144600 83 103 2.6 4.3 0.00 0.00 0.00 77 1006.2
20260906143054 83 136 0.9 6.1 0.00 0.00 0.00 79 1006.2
20260906141549 82 171 0.0 3.5 0.00 0.00 0.00 81 1006.1
20260906140051 80 84 0.0 3.5 0.00 0.00 0.00 83 1006.3
20260906134549 78 91 0.9 4.3 0.00 0.00 0.00 86 1006.3
20260906133052 77 146 1.7 4.3 0.00 0.00 0.00 88 1006.3
20260906131545 76 133 0.9 2.6 0.00 0.00 0.00 88 1006.3
20260906130041 0 0.0 0.0 0.00 0.00 0.00 1006.2
20260906124537 0 0.0 0.0 0.00 0.00 0.00 1005.9
20260906123038 0 0.0 0.0 0.00 0.00 0.00 1005.7
20260906121537 0 0.0 0.0 0.00 0.00 0.00 1005.6
20260906120024 0 0.0 0.0 0.00 0.00 0.00 1005.2
20260906114523 0 0.0 0.0 0.00 0.00 0.00 1005.1
20260906113015 0 0.0 0.0 0.00 0.00 0.00 1005.0
20260906111510 0 0.0 0.0 0.00 0.00 0.00 1004.8
20260906110006 0 0.0 0.0 0.00 0.00 0.00 1004.6
20260906104501 0 0.0 0.0 0.00 0.00 0.00 1004.5
20260906103057 0 0.0 0.0 0.00 0.00 0.00 1004.4
20260906101553 0 0.0 0.0 0.00 0.00 0.00 1004.3
20260906100049 0 0.0 0.0 0.00 0.00 0.00 1004.3
20260906094543 76 127 0.0 1.7 0.00 0.00 0.00 85 1004.2
20260906093050 77 141 0.0 0.9 0.00 0.00 0.00 84 1004.0
20260906091542 77 138 0.9 2.6 0.00 0.00 0.00 84 1004.0
20260906090040 77 146 0.9 1.7 0.00 0.00 0.00 83 1004.1
20260906084539 77 151 0.9 2.6 0.00 0.00 0.00 83 1004.0
20260906083038 77 155 0.0 1.7 0.00 0.00 0.00 82 1004.0
20260906081549 78 131 0.0 1.7 0.00 0.00 0.00 82 1004.1
20260906080034 78 131 0.0 2.6 0.00 0.00 0.00 81 1004.3
20260906074532 79 138 0.0 1.7 0.00 0.00 0.00 80 1004.4
20260906073045 79 129 0.0 2.6 0.00 0.00 0.00 79 1004.6
20260906071528 79 132 0.9 2.6 0.00 0.00 0.00 79 1004.7
20260906070036 79 153 0.0 0.0 0.00 0.00 0.00 78 1004.7
20260906064523 80 134 0.9 2.6 0.00 0.00 0.00 77 1004.9
20260906063022 80 150 0.9 3.5 0.00 0.00 0.00 77 1005.1
20260906061520 80 146 0.0 2.6 0.00 0.00 0.00 76 1005.0
20260906060019 81 153 0.9 3.5 0.00 0.00 0.00 75 1005.1
20260906054521 81 150 1.7 5.2 0.00 0.00 0.00 75 1004.9
20260906053016 81 145 0.9 4.3 0.00 0.00 0.00 75 1005.1
20260906051520 82 146 2.6 6.1 0.00 0.00 0.00 74 1005.0
20260906050014 82 153 3.5 6.1 0.00 0.00 0.00 74 1005.1
20260906044509 82 148 2.6 4.3 0.00 0.00 0.00 73 1005.2
20260906043004 82 123 2.6 5.2 0.00 0.00 0.00 73 1005.0
20260906041600 83 150 2.6 6.1 0.00 0.00 0.00 73 1004.9
20260906040111 83 160 3.5 8.7 0.00 0.00 0.00 72 1005.0
20260906034550 83 153 5.2 9.6 0.00 0.00 0.00 70 1005.0
20260906033049 84 127 6.1 9.6 0.00 0.00 0.00 69 1004.9
20260906031540 85 143 5.2 11.3 0.00 0.00 0.00 68 1004.9
20260906030037 85 124 2.6 8.7 0.00 0.00 0.00 67 1004.8
20260906024533 86 106 2.6 7.0 0.00 0.00 0.00 65 1004.6
20260906023027 87 153 3.5 7.8 0.00 0.00 0.00 64 1004.1
20260906021523 87 119 5.2 10.4 0.00 0.00 0.00 62 1003.9
20260906020019 88 110 5.2 10.4 0.00 0.00 0.00 59 1003.9
20260906014522 89 103 5.2 10.4 0.00 0.00 0.00 57 1003.7
20260906013010 90 108 8.7 13.9 0.00 0.00 0.00 56 1003.6
20260906011505 90 94 6.1 12.2 0.00 0.00 0.00 53 1003.4
20260906010101 91 107 6.1 10.4 0.00 0.00 0.00 53 1003.1
20260906004608 91 125 4.3 12.2 0.00 0.00 0.00 54 1003.0
20260906003054 92 118 7.0 12.2 0.00 0.00 0.00 54 1003.1
20260906001547 93 123 6.1 13.9 0.00 0.00 0.00 52 1003.2
20260906000043 93 106 7.0 14.8 0.00 0.00 0.00 51 1003.0
20260905234550 94 99 7.0 14.8 0.00 0.00 0.00 52 1002.9
20260905233034 96 110 8.7 13.0 0.00 0.00 0.00 48 1002.7
20260905231529 97 91 5.2 8.7 0.00 0.00 0.00 41 1002.6
20260905230024 98 23 6.1 9.6 0.00 0.00 0.00 42 1002.6
20260905224520 98 136 2.6 7.8 0.00 0.00 0.00 40 1002.6
20260905223015 99 157 4.3 7.0 0.00 0.00 0.00 41 1002.5
20260905221514 99 147 2.6 7.8 0.00 0.00 0.00 41 1002.5
20260905220007 98 110 0.0 5.2 0.00 0.00 0.00 41 1002.4
20260905214501 98 145 2.6 6.1 0.00 0.00 0.00 40 1002.6
20260905213057 97 140 1.7 7.8 0.00 0.00 0.00 42 1002.7
20260905211553 98 104 2.6 8.7 0.00 0.00 0.00 41 1003.0
20260905210049 98 123 5.2 8.7 0.00 0.00 0.00 41 1003.2
20260905204545 100 101 1.7 6.1 0.00 0.00 0.00 40 1003.5
20260905203039 99 259 2.6 6.1 0.00 0.00 0.00 40 1003.6
20260905201537 96 100 0.0 5.2 0.00 0.00 0.00 43 1003.7
20260905200039 94 125 0.9 6.1 0.00 0.00 0.00 47 1003.9
20260905194526 96 118 4.3 9.6 0.00 0.00 0.00 45 1004.2
20260905193023 97 120 2.6 7.0 0.00 0.00 0.00 45 1004.4
20260905191515 96 112 4.3 7.8 0.00 0.00 0.00 46 1004.8
20260905190035 95 141 0.0 11.3 0.00 0.00 0.00 48 1004.9
20260905184507 94 127 0.0 6.1 0.00 0.00 0.00 49 1005.3
20260905183002 96 133 5.2 10.4 0.00 0.00 0.00 47 1005.5
20260905181603 95 181 1.7 7.0 0.00 0.00 0.00 47 1005.7
20260905180054 94 273 0.9 7.0 0.00 0.00 0.00 50 1006.0
20260905174548 94 306 1.7 9.6 0.00 0.00 0.00 50 1006.3
20260905173045 93 141 3.5 10.4 0.00 0.00 0.00 52 1006.5
20260905171541 92 159 2.6 8.7 0.00 0.00 0.00 54 1006.6
20260905170041 92 234 2.6 7.8 0.00 0.00 0.00 55 1006.7
20260905164536 91 111 1.7 7.8 0.00 0.00 0.00 56 1006.8
20260905163027 91 265 1.7 8.7 0.00 0.00 0.00 56 1006.9